Location: Waco, TX
(31.5480°N, 97.1670°W)
Time: 15:11:40
(UTC-06:00)

ISS - Pass Details

Date: 01 February 2021
Orbit: 417 x 422 km, 51.6° (Epoch: 07 March)

Event Time Altitude Azimuth Distance (km) Brightness Sun altitude
Rises 13:08:01 0° 228° (SW) 2,347 0.6 41.2°
Reaches altitude 10° 13:10:06 10° 231° (SW) 1,488 -0.3 41.1°
Maximum altitude 13:13:26 71° 315° (NW) 444 -3.1 41.0°
Drops below altitude 10° 13:16:47 10° 41° (NE) 1,499 -1.3 40.9°
Sets 13:18:54 0° 43° (NE) 2,366 -0.3 40.8°
